| time (UTC) | temp F | wind direction | speed MPH | gust MPH | rain 1hr in | rain 24hr in | rain mn in | humidity % | barometer mb |
| 20260906043816 | 74 | 23 | 4.0 | 7.0 | 0.00 | 0.00 | 0.00 | 93 | 1016.3 |
| 20260906043330 | 75 | 63 | 1.0 | 5.0 | 0.00 | 0.00 | 0.00 | 93 | 1016.2 |
| 20260906042838 | 75 | 343 | 3.0 | 6.0 | 0.00 | 0.00 | 0.00 | 93 | 1016.2 |
| 20260906042325 | 75 | 38 | 3.0 | 6.0 | 0.00 | 0.00 | 0.00 | 93 | 1016.1 |
| 20260906041830 | 75 | 46 | 4.0 | 6.0 | 0.00 | 0.00 | 0.00 | 93 | 1016.1 |
| 20260906041320 | 75 | 58 | 4.0 | 6.0 | 0.00 | 0.00 | 0.00 | 93 | 1016.0 |
| 20260906040828 | 75 | 31 | 3.0 | 5.0 | 0.00 | 0.00 | 0.00 | 92 | 1016.1 |
| 20260906040317 | 75 | 35 | 3.0 | 7.0 | 0.00 | 0.00 | 0.00 | 93 | 1015.9 |
| 20260906035826 | 75 | 41 | 4.0 | 7.0 | 0.00 | 0.00 | 0.00 | 92 | 1016.0 |
| 20260906035333 | 75 | 15 | 3.0 | 7.0 | 0.00 | 0.00 | 0.00 | 92 | 1015.9 |
| 20260906034842 | 75 | 58 | 4.0 | 7.0 | 0.00 | 0.00 | 0.00 | 92 | 1015.9 |
| 20260906034329 | 75 | 24 | 2.0 | 5.0 | 0.00 | 0.00 | 0.00 | 92 | 1015.8 |
| 20260906033838 | 75 | 80 | 2.0 | 7.0 | 0.00 | 0.00 | 0.00 | 92 | 1015.8 |
| 20260906033348 | 75 | 70 | 1.0 | 7.0 | 0.00 | 0.00 | 0.00 | 91 | 1015.8 |
| 20260906032835 | 75 | 92 | 1.0 | 6.0 | 0.00 | 0.00 | 0.00 | 91 | 1015.9 |
| 20260906032342 | 76 | 34 | 4.0 | 6.0 | 0.00 | 0.00 | 0.00 | 91 | 1015.8 |
| 20260906031827 | 76 | 49 | 3.0 | 5.0 | 0.00 | 0.00 | 0.00 | 91 | 1015.9 |
| 20260906031334 | 76 | 42 | 2.0 | 5.0 | 0.00 | 0.00 | 0.00 | 91 | 1015.8 |
| 20260906030824 | 76 | 45 | 0.0 | 5.0 | 0.00 | 0.00 | 0.00 | 91 | 1015.6 |
| 20260906030333 | 76 | 95 | 1.0 | 5.0 | 0.00 | 0.00 | 0.00 | 91 | 1015.8 |
| 20260906025825 | 76 | 63 | 1.0 | 5.0 | 0.00 | 0.00 | 0.00 | 91 | 1015.9 |
| 20260906025323 | 76 | 47 | 2.0 | 4.0 | 0.00 | 0.00 | 0.00 | 91 | 1015.8 |
| 20260906024831 | 76 | 60 | 1.0 | 6.0 | 0.00 | 0.00 | 0.00 | 91 | 1015.7 |
| 20260906024319 | 76 | 46 | 2.0 | 6.0 | 0.00 | 0.00 | 0.00 | 91 | 1015.7 |
| 20260906023829 | 76 | 82 | 1.0 | 9.0 | 0.00 | 0.00 | 0.00 | 90 | 1015.8 |
| 20260906023317 | 76 | 53 | 2.0 | 10.0 | 0.00 | 0.00 | 0.00 | 90 | 1015.8 |
| 20260906022825 | 76 | 56 | 2.0 | 12.0 | 0.00 | 0.00 | 0.00 | 89 | 1015.8 |
| 20260906022332 | 77 | 91 | 4.0 | 12.0 | 0.00 | 0.00 | 0.00 | 89 | 1015.7 |
| 20260906021819 | 77 | 40 | 4.0 | 8.0 | 0.00 | 0.00 | 0.00 | 89 | 1015.7 |
| 20260906021325 | 77 | 46 | 3.0 | 7.0 | 0.00 | 0.00 | 0.00 | 88 | 1015.5 |
| 20260906020834 | 77 | 79 | 1.0 | 8.0 | 0.00 | 0.00 | 0.00 | 87 | 1015.3 |
| 20260906020323 | 77 | 24 | 2.0 | 9.0 | 0.00 | 0.00 | 0.00 | 86 | 1015.3 |
| 20260906015830 | 77 | 59 | 4.0 | 9.0 | 0.00 | 0.00 | 0.00 | 85 | 1015.2 |
| 20260906015337 | 78 | 58 | 2.0 | 6.0 | 0.00 | 0.00 | 0.00 | 83 | 1015.2 |
| 20260906014825 | 78 | 85 | 1.0 | 4.0 | 0.00 | 0.00 | 0.00 | 82 | 1015.1 |
| 20260906014334 | 78 | 39 | 1.0 | 3.0 | 0.00 | 0.00 | 0.00 | 81 | 1015.0 |
| 20260906013823 | 78 | 44 | 1.0 | 3.0 | 0.00 | 0.00 | 0.00 | 82 | 1015.0 |
| 20260906013332 | 78 | 23 | 2.0 | 3.0 | 0.00 | 0.00 | 0.00 | 81 | 1014.7 |
| 20260906012820 | 78 | 25 | 1.0 | 3.0 | 0.00 | 0.00 | 0.00 | 82 | 1014.6 |
| 20260906012337 | 78 | 350 | 1.0 | 3.0 | 0.00 | 0.00 | 0.00 | 81 | 1014.6 |
| 20260906011826 | 78 | 77 | 0.0 | 3.0 | 0.00 | 0.00 | 0.00 | 80 | 1014.6 |
| 20260906011329 | 79 | 77 | 1.0 | 2.0 | 0.00 | 0.00 | 0.00 | 79 | 1014.5 |
| 20260906010818 | 79 | 347 | 1.0 | 1.0 | 0.00 | 0.00 | 0.00 | 78 | 1014.4 |
| 20260906010323 | 79 | 315 | 1.0 | 2.0 | 0.00 | 0.00 | 0.00 | 79 | 1014.4 |
| 20260906005831 | 79 | 320 | 1.0 | 2.0 | 0.00 | 0.00 | 0.00 | 78 | 1014.5 |
| 20260906005340 | 79 | 314 | 1.0 | 2.0 | 0.00 | 0.00 | 0.00 | 79 | 1014.4 |
| 20260906004826 | 79 | 338 | 1.0 | 2.0 | 0.00 | 0.00 | 0.00 | 79 | 1014.3 |
| 20260906004334 | 79 | 324 | 0.0 | 2.0 | 0.00 | 0.00 | 0.00 | 79 | 1014.3 |
| 20260906003842 | 79 | 349 | 1.0 | 2.0 | 0.00 | 0.00 | 0.00 | 78 | 1014.2 |
| 20260906003327 | 80 | 25 | 0.0 | 3.0 | 0.00 | 0.00 | 0.00 | 77 | 1014.1 |
| 20260906002836 | 80 | 25 | 1.0 | 3.0 | 0.00 | 0.00 | 0.00 | 77 | 1014.0 |
| 20260906002321 | 80 | 46 | 1.0 | 7.0 | 0.00 | 0.00 | 0.00 | 76 | 1014.0 |
| 20260906001824 | 80 | 53 | 1.0 | 7.0 | 0.00 | 0.00 | 0.00 | 76 | 1014.0 |
| 20260906001330 | 81 | 21 | 4.0 | 6.0 | 0.00 | 0.00 | 0.00 | 76 | 1014.1 |
| 20260906000903 | 81 | 338 | 4.0 | 8.0 | 0.00 | 0.00 | 0.00 | 75 | 1014.0 |
| 20260906000349 | 81 | 27 | 4.0 | 8.0 | 0.00 | 0.00 | 0.00 | 74 | 1014.0 |
| 20260905235833 | 81 | 25 | 4.0 | 6.0 | 0.00 | 0.00 | 0.00 | 75 | 1014.0 |
| 20260905235318 | 81 | 323 | 4.0 | 6.0 | 0.00 | 0.00 | 0.00 | 75 | 1014.1 |
| 20260905234841 | 81 | 23 | 5.0 | 6.0 | 0.00 | 0.00 | 0.00 | 75 | 1014.1 |
| 20260905234339 | 81 | 359 | 4.0 | 7.0 | 0.00 | 0.00 | 0.00 | 76 | 1014.0 |
| 20260905233854 | 81 | 27 | 2.0 | 9.0 | 0.00 | 0.00 | 0.00 | 76 | 1014.1 |
| 20260905233351 | 82 | 6 | 4.0 | 9.0 | 0.00 | 0.00 | 0.00 | 75 | 1014.2 |
| 20260905232833 | 83 | 73 | 4.0 | 12.0 | 0.00 | 0.00 | 0.00 | 74 | 1014.3 |
| 20260905232334 | 84 | 17 | 7.0 | 12.0 | 0.00 | 0.00 | 0.00 | 73 | 1014.3 |
| 20260905231834 | 85 | 22 | 4.0 | 13.0 | 0.00 | 0.00 | 0.00 | 73 | 1014.2 |
| 20260905231322 | 86 | 35 | 6.0 | 13.0 | 0.00 | 0.00 | 0.00 | 72 | 1014.2 |
| 20260905230827 | 88 | 34 | 6.0 | 11.0 | 0.00 | 0.00 | 0.00 | 70 | 1014.2 |
| 20260905230350 | 89 | 24 | 4.0 | 7.0 | 0.00 | 0.00 | 0.00 | 70 | 1014.1 |
| 20260905225826 | 89 | 311 | 4.0 | 7.0 | 0.00 | 0.00 | 0.00 | 69 | 1014.0 |
| 20260905225334 | 89 | 338 | 3.0 | 7.0 | 0.00 | 0.00 | 0.00 | 70 | 1014.0 |
| 20260905224822 | 89 | 288 | 3.0 | 7.0 | 0.00 | 0.00 | 0.00 | 69 | 1013.8 |
| 20260905224357 | 90 | 301 | 2.0 | 7.0 | 0.00 | 0.00 | 0.00 | 69 | 1013.9 |
| 20260905223824 | 90 | 269 | 2.0 | 7.0 | 0.00 | 0.00 | 0.00 | 68 | 1013.7 |
| 20260905223332 | 90 | 302 | 2.0 | 6.0 | 0.00 | 0.00 | 0.00 | 68 | 1013.5 |
| 20260905222821 | 90 | 333 | 2.0 | 7.0 | 0.00 | 0.00 | 0.00 | 69 | 1013.5 |
| 20260905222322 | 90 | 295 | 3.0 | 7.0 | 0.00 | 0.00 | 0.00 | 67 | 1013.4 |
| 20260905221850 | 90 | 296 | 3.0 | 7.0 | 0.00 | 0.00 | 0.00 | 68 | 1013.4 |
| 20260905221317 | 90 | 314 | 5.0 | 7.0 | 0.00 | 0.00 | 0.00 | 67 | 1013.5 |
| 20260905220823 | 90 | 279 | 4.0 | 6.0 | 0.00 | 0.00 | 0.00 | 67 | 1013.6 |
| 20260905220333 | 90 | 325 | 3.0 | 6.0 | 0.00 | 0.00 | 0.00 | 70 | 1013.5 |
| 20260905215821 | 90 | 292 | 1.0 | 5.0 | 0.00 | 0.00 | 0.00 | 68 | 1013.4 |
| 20260905215327 | 89 | 317 | 3.0 | 6.0 | 0.00 | 0.00 | 0.00 | 68 | 1013.3 |
| 20260905214836 | 89 | 293 | 2.0 | 6.0 | 0.00 | 0.00 | 0.00 | 68 | 1013.3 |
| 20260905214344 | 89 | 297 | 2.0 | 3.0 | 0.00 | 0.00 | 0.00 | 67 | 1013.4 |
| 20260905213832 | 89 | 270 | 1.0 | 7.0 | 0.00 | 0.00 | 0.00 | 68 | 1013.6 |
| 20260905213320 | 89 | 307 | 4.0 | 7.0 | 0.00 | 0.00 | 0.00 | 66 | 1013.4 |
| 20260905212830 | 90 | 245 | 3.0 | 7.0 | 0.00 | 0.00 | 0.00 | 67 | 1013.5 |
| 20260905212337 | 90 | 300 | 1.0 | 3.0 | 0.00 | 0.00 | 0.00 | 66 | 1013.5 |
| 20260905211825 | 90 | 285 | 2.0 | 3.0 | 0.00 | 0.00 | 0.00 | 66 | 1013.3 |
| 20260905211333 | 90 | 330 | 1.0 | 5.0 | 0.00 | 0.00 | 0.00 | 65 | 1013.2 |
| 20260905210822 | 90 | 334 | 3.0 | 6.0 | 0.00 | 0.00 | 0.00 | 65 | 1013.7 |
| 20260905210329 | 91 | 242 | 2.0 | 6.0 | 0.00 | 0.00 | 0.00 | 64 | 1013.7 |
| 20260905205833 | 91 | 302 | 3.0 | 8.0 | 0.00 | 0.00 | 0.00 | 64 | 1013.7 |
| 20260905205321 | 91 | 289 | 3.0 | 6.0 | 0.00 | 0.00 | 0.00 | 63 | 1013.8 |
| 20260905204830 | 91 | 293 | 2.0 | 7.0 | 0.00 | 0.00 | 0.00 | 63 | 1013.9 |
| 20260905204318 | 91 | 256 | 4.0 | 7.0 | 0.00 | 0.00 | 0.00 | 62 | 1013.7 |
| 20260905203828 | 92 | 245 | 3.0 | 7.0 | 0.00 | 0.00 | 0.00 | 62 | 1013.8 |
| 20260905203317 | 91 | 257 | 3.0 | 7.0 | 0.00 | 0.00 | 0.00 | 62 | 1013.8 |
| 20260905202842 | 91 | 284 | 0.0 | 6.0 | 0.00 | 0.00 | 0.00 | 64 | 1013.9 |
| 20260905202327 | 92 | 359 | 3.0 | 6.0 | 0.00 | 0.00 | 0.00 | 64 | 1014.0 |
| 20260905201836 | 92 | 345 | 3.0 | 10.0 | 0.00 | 0.00 | 0.00 | 61 | 1014.0 |
| 20260905201325 | 92 | 243 | 5.0 | 10.0 | 0.00 | 0.00 | 0.00 | 60 | 1014.1 |
| 20260905200833 | 92 | 274 | 1.0 | 6.0 | 0.00 | 0.00 | 0.00 | 61 | 1014.1 |
| 20260905200321 | 92 | 316 | 1.0 | 6.0 | 0.00 | 0.00 | 0.00 | 61 | 1014.0 |
| 20260905195831 | 92 | 311 | 1.0 | 6.0 | 0.00 | 0.00 | 0.00 | 61 | 1014.0 |
| 20260905195321 | 92 | 295 | 2.0 | 6.0 | 0.00 | 0.00 | 0.00 | 61 | 1014.1 |
| 20260905194826 | 91 | 256 | 2.0 | 5.0 | 0.00 | 0.00 | 0.00 | 62 | 1014.1 |
| 20260905194334 | 91 | 266 | 0.0 | 7.0 | 0.00 | 0.00 | 0.00 | 61 | 1014.2 |
| 20260905193822 | 91 | 297 | 2.0 | 10.0 | 0.00 | 0.00 | 0.00 | 61 | 1014.2 |
| 20260905193331 | 91 | 265 | 5.0 | 10.0 | 0.00 | 0.00 | 0.00 | 60 | 1014.2 |
| 20260905192820 | 92 | 311 | 2.0 | 8.0 | 0.00 | 0.00 | 0.00 | 61 | 1014.2 |
| 20260905192344 | 92 | 265 | 3.0 | 8.0 | 0.00 | 0.00 | 0.00 | 60 | 1014.3 |
| 20260905191822 | 91 | 323 | 0.0 | 8.0 | 0.00 | 0.00 | 0.00 | 60 | 1014.4 |
| 20260905191331 | 91 | 262 | 4.0 | 8.0 | 0.00 | 0.00 | 0.00 | 60 | 1014.4 |
| 20260905190821 | 91 | 302 | 4.0 | 9.0 | 0.00 | 0.00 | 0.00 | 62 | 1014.5 |
| 20260905190330 | 91 | 228 | 3.0 | 9.0 | 0.00 | 0.00 | 0.00 | 60 | 1014.7 |
| 20260905185818 | 91 | 9 | 2.0 | 7.0 | 0.00 | 0.00 | 0.00 | 62 | 1014.5 |
| 20260905185324 | 90 | 314 | 5.0 | 7.0 | 0.00 | 0.00 | 0.00 | 62 | 1014.7 |
| 20260905184833 | 90 | 266 | 3.0 | 6.0 | 0.00 | 0.00 | 0.00 | 62 | 1014.9 |
| 20260905184320 | 90 | 286 | 3.0 | 6.0 | 0.00 | 0.00 | 0.00 | 60 | 1014.9 |
| 20260905183829 | 91 | 290 | 3.0 | 7.0 | 0.00 | 0.00 | 0.00 | 61 | 1015.1 |
| 20260905183337 | 90 | 277 | 3.0 | 9.0 | 0.00 | 0.00 | 0.00 | 62 | 1015.1 |
| 20260905182845 | 90 | 151 | 2.0 | 12.0 | 0.00 | 0.00 | 0.00 | 61 | 1015.1 |
| 20260905182332 | 90 | 238 | 4.0 | 12.0 | 0.00 | 0.00 | 0.00 | 61 | 1015.2 |
| 20260905181821 | 89 | 256 | 3.0 | 8.0 | 0.00 | 0.00 | 0.00 | 61 | 1015.3 |
| 20260905181330 | 89 | 248 | 5.0 | 7.0 | 0.00 | 0.00 | 0.00 | 61 | 1015.3 |
| 20260905180838 | 89 | 143 | 3.0 | 9.0 | 0.00 | 0.00 | 0.00 | 62 | 1015.3 |
| 20260905180326 | 89 | 234 | 5.0 | 9.0 | 0.00 | 0.00 | 0.00 | 61 | 1015.4 |
| 20260905175834 | 89 | 274 | 4.0 | 8.0 | 0.00 | 0.00 | 0.00 | 60 | 1015.3 |
| 20260905175321 | 89 | 224 | 2.0 | 5.0 | 0.00 | 0.00 | 0.00 | 60 | 1015.4 |
| 20260905174827 | 89 | 209 | 3.0 | 9.0 | 0.00 | 0.00 | 0.00 | 61 | 1015.6 |
| 20260905174315 | 88 | 217 | 3.0 | 9.0 | 0.00 | 0.00 | 0.00 | 61 | 1015.6 |
| 20260905173824 | 89 | 226 | 5.0 | 9.0 | 0.00 | 0.00 | 0.00 | 61 | 1015.6 |
| 20260905173332 | 88 | 102 | 3.0 | 8.0 | 0.00 | 0.00 | 0.00 | 62 | 1015.6 |
| 20260905172821 | 88 | 160 | 3.0 | 9.0 | 0.00 | 0.00 | 0.00 | 62 | 1015.7 |
| 20260905172330 | 89 | 217 | 4.0 | 9.0 | 0.00 | 0.00 | 0.00 | 63 | 1015.9 |
| 20260905171841 | 88 | 215 | 1.0 | 6.0 | 0.00 | 0.00 | 0.00 | 64 | 1015.9 |
| 20260905171326 | 88 | 147 | 2.0 | 6.0 | 0.00 | 0.00 | 0.00 | 62 | 1015.9 |
| 20260905170835 | 87 | 250 | 1.0 | 5.0 | 0.00 | 0.00 | 0.00 | 64 | 1016.1 |
| 20260905170323 | 87 | 239 | 3.0 | 6.0 | 0.00 | 0.00 | 0.00 | 65 | 1016.2 |
| 20260905165830 | 87 | 237 | 2.0 | 8.0 | 0.00 | 0.00 | 0.00 | 64 | 1016.3 |
| 20260905165337 | 87 | 216 | 4.0 | 8.0 | 0.00 | 0.00 | 0.00 | 63 | 1016.4 |
| 20260905164845 | 88 | 195 | 2.0 | 6.0 | 0.00 | 0.00 | 0.00 | 66 | 1016.5 |
| 20260905164331 | 87 | 250 | 2.0 | 5.0 | 0.00 | 0.00 | 0.00 | 65 | 1016.4 |
| 20260905163821 | 87 | 255 | 2.0 | 5.0 | 0.00 | 0.00 | 0.00 | 64 | 1016.5 |
| 20260905163331 | 87 | 224 | 1.0 | 6.0 | 0.00 | 0.00 | 0.00 | 65 | 1016.5 |
| 20260905162851 | 86 | 210 | 2.0 | 6.0 | 0.00 | 0.00 | 0.00 | 65 | 1016.5 |
| 20260905162318 | 85 | 212 | 2.0 | 5.0 | 0.00 | 0.00 | 0.00 | 66 | 1016.5 |
| 20260905161827 | 84 | 221 | 1.0 | 6.0 | 0.00 | 0.00 | 0.00 | 68 | 1016.6 |
| 20260905161316 | 84 | 268 | 2.0 | 4.0 | 0.00 | 0.00 | 0.00 | 67 | 1016.6 |
| 20260905160842 | 83 | 107 | 2.0 | 4.0 | 0.00 | 0.00 | 0.00 | 68 | 1016.6 |
| 20260905160328 | 83 | 248 | 1.0 | 5.0 | 0.00 | 0.00 | 0.00 | 68 | 1016.5 |
| 20260905155816 | 83 | 105 | 1.0 | 7.0 | 0.00 | 0.00 | 0.00 | 69 | 1016.6 |
| 20260905155323 | 83 | 228 | 2.0 | 7.0 | 0.00 | 0.00 | 0.00 | 70 | 1016.8 |
| 20260905154832 | 83 | 250 | 2.0 | 7.0 | 0.00 | 0.00 | 0.00 | 69 | 1016.6 |
| 20260905154321 | 83 | 221 | 4.0 | 7.0 | 0.00 | 0.00 | 0.00 | 68 | 1016.6 |
| 20260905153831 | 83 | 243 | 2.0 | 5.0 | 0.00 | 0.00 | 0.00 | 69 | 1016.7 |
| 20260905153320 | 83 | 208 | 2.0 | 5.0 | 0.00 | 0.00 | 0.00 | 68 | 1016.8 |
| 20260905152828 | 82 | 80 | 1.0 | 6.0 | 0.00 | 0.00 | 0.00 | 71 | 1016.9 |
| 20260905152335 | 82 | 141 | 2.0 | 6.0 | 0.00 | 0.00 | 0.00 | 71 | 1016.8 |
| 20260905151842 | 82 | 136 | 2.0 | 10.0 | 0.00 | 0.00 | 0.00 | 69 | 1016.8 |
| 20260905151328 | 82 | 136 | 4.0 | 10.0 | 0.00 | 0.00 | 0.00 | 69 | 1016.7 |
| 20260905150850 | 82 | 172 | 1.0 | 7.0 | 0.00 | 0.00 | 0.00 | 71 | 1016.6 |
| 20260905150317 | 82 | 143 | 3.0 | 9.0 | 0.00 | 0.00 | 0.00 | 70 | 1016.6 |
| 20260905145826 | 81 | 126 | 1.0 | 10.0 | 0.00 | 0.00 | 0.00 | 71 | 1016.6 |
| 20260905145353 | 81 | 92 | 2.0 | 10.0 | 0.00 | 0.00 | 0.00 | 71 | 1016.6 |
| 20260905144820 | 81 | 150 | 2.0 | 7.0 | 0.00 | 0.00 | 0.00 | 71 | 1016.7 |
| 20260905144326 | 81 | 98 | 2.0 | 7.0 | 0.00 | 0.00 | 0.00 | 71 | 1016.8 |
| 20260905143815 | 80 | 144 | 2.0 | 7.0 | 0.00 | 0.00 | 0.00 | 72 | 1016.8 |
| 20260905143350 | 80 | 206 | 3.0 | 7.0 | 0.00 | 0.00 | 0.00 | 72 | 1016.8 |
| 20260905142837 | 80 | 115 | 2.0 | 5.0 | 0.00 | 0.00 | 0.00 | 73 | 1016.9 |
| 20260905142325 | 80 | 248 | 1.0 | 7.0 | 0.00 | 0.00 | 0.00 | 73 | 1016.9 |
| 20260905141834 | 79 | 160 | 3.0 | 7.0 | 0.00 | 0.00 | 0.00 | 73 | 1017.0 |
| 20260905141342 | 79 | 108 | 2.0 | 8.0 | 0.00 | 0.00 | 0.00 | 74 | 1017.0 |
| 20260905140830 | 79 | 134 | 2.0 | 8.0 | 0.00 | 0.00 | 0.00 | 75 | 1016.9 |
| 20260905140336 | 78 | 167 | 2.0 | 6.0 | 0.00 | 0.00 | 0.00 | 75 | 1017.0 |
| 20260905135824 | 78 | 228 | 3.0 | 9.0 | 0.00 | 0.00 | 0.00 | 75 | 1017.0 |
| 20260905135328 | 78 | 75 | 2.0 | 7.0 | 0.00 | 0.00 | 0.00 | 77 | 1017.0 |
| 20260905134818 | 77 | 113 | 3.0 | 10.0 | 0.00 | 0.00 | 0.00 | 77 | 1017.0 |
| 20260905134329 | 77 | 113 | 3.0 | 10.0 | 0.00 | 0.00 | 0.00 | 77 | 1017.1 |
| 20260905133816 | 77 | 122 | 3.0 | 7.0 | 0.00 | 0.00 | 0.00 | 77 | 1017.0 |
| 20260905133325 | 77 | 155 | 2.0 | 7.0 | 0.00 | 0.00 | 0.00 | 77 | 1017.0 |
| 20260905132831 | 77 | 136 | 2.0 | 9.0 | 0.00 | 0.00 | 0.00 | 78 | 1017.1 |
| 20260905132341 | 76 | 148 | 2.0 | 9.0 | 0.00 | 0.00 | 0.00 | 78 | 1017.2 |
| 20260905131829 | 76 | 127 | 2.0 | 7.0 | 0.00 | 0.00 | 0.00 | 78 | 1017.3 |
| 20260905131336 | 76 | 137 | 2.0 | 7.0 | 0.00 | 0.00 | 0.00 | 79 | 1017.2 |
| 20260905130825 | 76 | 143 | 2.0 | 7.0 | 0.00 | 0.00 | 0.00 | 79 | 1017.0 |
| 20260905130333 | 75 | 278 | 1.0 | 8.0 | 0.00 | 0.00 | 0.00 | 81 | 1017.1 |
| 20260905125842 | 75 | 150 | 4.0 | 8.0 | 0.00 | 0.00 | 0.00 | 80 | 1017.0 |
| 20260905125326 | 74 | 189 | 2.0 | 7.0 | 0.00 | 0.00 | 0.00 | 81 | 1016.9 |
| 20260905124835 | 74 | 141 | 1.0 | 5.0 | 0.00 | 0.00 | 0.00 | 82 | 1017.0 |
| 20260905124324 | 73 | 138 | 1.0 | 8.0 | 0.00 | 0.00 | 0.00 | 83 | 1017.0 |
| 20260905123832 | 73 | 99 | 2.0 | 8.0 | 0.00 | 0.00 | 0.00 | 82 | 1017.1 |
| 20260905123322 | 73 | 22 | 1.0 | 7.0 | 0.00 | 0.00 | 0.00 | 84 | 1016.9 |
| 20260905122830 | 73 | 173 | 2.0 | 9.0 | 0.00 | 0.00 | 0.00 | 84 | 1017.0 |
| 20260905122320 | 72 | 136 | 3.0 | 9.0 | 0.00 | 0.00 | 0.00 | 85 | 1017.0 |
| 20260905121826 | 72 | 114 | 1.0 | 9.0 | 0.00 | 0.00 | 0.00 | 85 | 1017.1 |
| 20260905121331 | 72 | 141 | 2.0 | 9.0 | 0.00 | 0.00 | 0.00 | 86 | 1017.2 |
| 20260905120820 | 71 | 77 | 1.0 | 6.0 | 0.00 | 0.00 | 0.00 | 86 | 1017.1 |
| 20260905120330 | 71 | 105 | 2.0 | 6.0 | 0.00 | 0.00 | 0.00 | 86 | 1017.0 |
| 20260905115818 | 71 | 49 | 2.0 | 6.0 | 0.00 | 0.00 | 0.00 | 86 | 1017.2 |
| 20260905115324 | 71 | 94 | 2.0 | 9.0 | 0.00 | 0.00 | 0.00 | 86 | 1017.1 |
| 20260905114855 | 71 | 109 | 2.0 | 9.0 | 0.00 | 0.00 | 0.00 | 87 | 1016.9 |
| 20260905114327 | 71 | 102 | 2.0 | 6.0 | 0.00 | 0.00 | 0.00 | 86 | 1016.8 |
| 20260905113833 | 71 | 75 | 3.0 | 8.0 | 0.00 | 0.00 | 0.00 | 86 | 1016.8 |
| 20260905113327 | 72 | 70 | 3.0 | 8.0 | 0.00 | 0.00 | 0.00 | 86 | 1016.9 |
| 20260905112835 | 72 | 116 | 2.0 | 9.0 | 0.00 | 0.00 | 0.00 | 86 | 1016.7 |
| 20260905112321 | 72 | 84 | 3.0 | 9.0 | 0.00 | 0.00 | 0.00 | 85 | 1016.8 |
| 20260905111828 | 72 | 91 | 2.0 | 7.0 | 0.00 | 0.00 | 0.00 | 85 | 1016.7 |
| 20260905111314 | 72 | 83 | 3.0 | 7.0 | 0.00 | 0.00 | 0.00 | 85 | 1016.7 |
| 20260905110824 | 72 | 118 | 1.0 | 7.0 | 0.00 | 0.00 | 0.00 | 85 | 1016.7 |
| 20260905110320 | 73 | 61 | 2.0 | 10.0 | 0.00 | 0.00 | 0.00 | 85 | 1016.8 |
| 20260905105828 | 73 | 309 | 3.0 | 12.0 | 0.00 | 0.00 | 0.00 | 84 | 1016.7 |
| 20260905105317 | 73 | 90 | 5.0 | 12.0 | 0.00 | 0.00 | 0.00 | 84 | 1016.7 |
| 20260905104825 | 74 | 225 | 1.0 | 12.0 | 0.00 | 0.00 | 0.00 | 86 | 1016.9 |
| 20260905104353 | 74 | 32 | 3.0 | 19.0 | 0.00 | 0.00 | 0.00 | 86 | 1016.9 |
| 20260905103821 | 75 | 82 | 5.0 | 19.0 | 0.00 | 0.00 | 0.00 | 90 | 1016.7 |
| 20260905103327 | 75 | 45 | 4.0 | 10.0 | 0.00 | 0.00 | 0.00 | 95 | 1016.5 |
| 20260905102816 | 75 | 61 | 1.0 | 3.0 | 0.00 | 0.00 | 0.00 | 96 | 1016.1 |
| 20260905102352 | 75 | 115 | 0.0 | 0.0 | 0.00 | 0.00 | 0.00 | 96 | 1015.6 |
| 20260905101334 | 75 | 115 | 0.0 | 0.0 | 0.00 | 0.00 | 0.00 | 96 | 1015.4 |
| 20260905100823 | 75 | 115 | 0.0 | 0.0 | 0.00 | 0.00 | 0.00 | 95 | 1015.4 |
| 20260905100333 | 75 | 115 | 0.0 | 0.0 | 0.00 | 0.00 | 0.00 | 95 | 1015.4 |
| 20260905095823 | 75 | 115 | 0.0 | 0.0 | 0.00 | 0.00 | 0.00 | 95 | 1015.4 |
| 20260905095331 | 75 | 115 | 0.0 | 1.0 | 0.00 | 0.00 | 0.00 | 96 | 1015.4 |
| 20260905094820 | 75 | 115 | 0.0 | 1.0 | 0.00 | 0.00 | 0.00 | 96 | 1015.4 |
| 20260905094327 | 75 | 115 | 0.0 | 0.0 | 0.00 | 0.00 | 0.00 | 96 | 1015.2 |
| 20260905093835 | 75 | 115 | 0.0 | 0.0 | 0.00 | 0.00 | 0.00 | 95 | 1015.2 |
| 20260905093323 | 75 | 115 | 0.0 | 0.0 | 0.00 | 0.00 | 0.00 | 95 | 1015.1 |
| 20260905092849 | 75 | 115 | 0.0 | 0.0 | 0.00 | 0.00 | 0.00 | 95 | 1015.1 |
| 20260905092317 | 75 | 115 | 0.0 | 0.0 | 0.00 | 0.00 | 0.00 | 95 | 1015.3 |
| 20260905091827 | 75 | 115 | 0.0 | 0.0 | 0.00 | 0.00 | 0.00 | 95 | 1015.1 |
| 20260905091317 | 75 | 115 | 0.0 | 0.0 | 0.00 | 0.00 | 0.00 | 95 | 1015.1 |
| 20260905090823 | 75 | 115 | 0.0 | 1.0 | 0.00 | 0.00 | 0.00 | 95 | 1015.2 |
| 20260905090352 | 76 | 115 | 0.0 | 1.0 | 0.00 | 0.00 | 0.00 | 94 | 1015.3 |
| 20260905085821 | 75 | 128 | 0.0 | 0.0 | 0.00 | 0.00 | 0.00 | 94 | 1015.2 |
| 20260905085327 | 75 | 128 | 0.0 | 0.0 | 0.00 | 0.00 | 0.00 | 94 | 1015.1 |
| 20260905084836 | 76 | 128 | 0.0 | 0.0 | 0.00 | 0.00 | 0.00 | 94 | 1015.1 |
| 20260905084325 | 76 | 128 | 0.0 | 0.0 | 0.00 | 0.00 | 0.00 | 94 | 1015.2 |
| 20260905083834 | 76 | 128 | 0.0 | 0.0 | 0.00 | 0.00 | 0.00 | 93 | 1015.3 |
| 20260905083343 | 76 | 127 | 0.0 | 0.0 | 0.00 | 0.00 | 0.00 | 93 | 1015.3 |
| 20260905082831 | 76 | 128 | 0.0 | 0.0 | 0.00 | 0.00 | 0.00 | 93 | 1015.3 |
| 20260905082340 | 76 | 128 | 0.0 | 0.0 | 0.00 | 0.00 | 0.00 | 93 | 1015.2 |
| 20260905081827 | 76 | 128 | 0.0 | 0.0 | 0.00 | 0.00 | 0.00 | 93 | 1015.1 |
| 20260905081332 | 76 | 128 | 0.0 | 0.0 | 0.00 | 0.00 | 0.00 | 93 | 1015.2 |
| 20260905080820 | 77 | 138 | 0.0 | 0.0 | 0.00 | 0.00 | 0.00 | 92 | 1015.0 |
| 20260905080329 | 77 | 138 | 0.0 | 0.0 | 0.00 | 0.00 | 0.00 | 93 | 1014.9 |
| 20260905075818 | 77 | 138 | 0.0 | 0.0 | 0.00 | 0.00 | 0.00 | 93 | 1014.8 |
| 20260905075328 | 77 | 138 | 0.0 | 0.0 | 0.00 | 0.00 | 0.00 | 93 | 1014.7 |
| 20260905074817 | 77 | 138 | 0.0 | 1.0 | 0.00 | 0.00 | 0.00 | 92 | 1014.5 |
| 20260905074323 | 77 | 138 | 0.0 | 1.0 | 0.00 | 0.00 | 0.00 | 93 | 1014.4 |
| 20260905073833 | 77 | 138 | 0.0 | 1.0 | 0.00 | 0.00 | 0.00 | 92 | 1014.4 |
| 20260905073340 | 77 | 123 | 0.0 | 1.0 | 0.00 | 0.00 | 0.00 | 93 | 1014.3 |
| 20260905072827 | 77 | 122 | 0.0 | 1.0 | 0.00 | 0.00 | 0.00 | 93 | 1014.5 |
| 20260905072334 | 76 | 122 | 0.0 | 1.0 | 0.00 | 0.00 | 0.00 | 92 | 1014.5 |
| 20260905071824 | 76 | 122 | 0.0 | 0.0 | 0.00 | 0.00 | 0.00 | 92 | 1014.5 |
| 20260905071333 | 77 | 127 | 0.0 | 1.0 | 0.00 | 0.00 | 0.00 | 92 | 1014.6 |
| 20260905070821 | 77 | 127 | 0.0 | 1.0 | 0.00 | 0.00 | 0.00 | 92 | 1014.6 |
| 20260905070329 | 77 | 120 | 0.0 | 1.0 | 0.00 | 0.00 | 0.00 | 92 | 1014.5 |
| 20260905065857 | 77 | 117 | 0.0 | 1.0 | 0.00 | 0.00 | 0.00 | 92 | 1014.6 |
| 20260905065324 | 77 | 118 | 0.0 | 1.0 | 0.00 | 0.00 | 0.00 | 92 | 1014.7 |
| 20260905064832 | 76 | 118 | 0.0 | 1.0 | 0.00 | 0.00 | 0.00 | 92 | 1014.7 |
| 20260905064321 | 76 | 116 | 0.0 | 1.0 | 0.00 | 0.00 | 0.00 | 92 | 1014.8 |
| 20260905063846 | 76 | 116 | 0.0 | 0.0 | 0.00 | 0.00 | 0.00 | 92 | 1014.9 |
| 20260905063354 | 76 | 116 | 0.0 | 0.0 | 0.00 | 0.00 | 0.00 | 92 | 1015.1 |
| 20260905062823 | 77 | 116 | 0.0 | 0.0 | 0.00 | 0.00 | 0.00 | 91 | 1015.3 |
| 20260905062330 | 77 | 116 | 0.0 | 0.0 | 0.00 | 0.00 | 0.00 | 92 | 1015.2 |
| 20260905061819 | 77 | 116 | 0.0 | 1.0 | 0.00 | 0.00 | 0.00 | 91 | 1015.3 |
| 20260905061323 | 77 | 116 | 0.0 | 1.0 | 0.00 | 0.00 | 0.00 | 91 | 1015.4 |
| 20260905060833 | 77 | 116 | 0.0 | 2.0 | 0.00 | 0.00 | 0.00 | 91 | 1015.4 |
| 20260905060342 | 77 | 124 | 0.0 | 2.0 | 0.00 | 0.00 | 0.00 | 91 | 1015.4 |
| 20260905055830 | 76 | 101 | 0.0 | 1.0 | 0.00 | 0.00 | 0.00 | 91 | 1015.5 |
| 20260905055337 | 76 | 106 | 0.0 | 1.0 | 0.00 | 0.00 | 0.00 | 90 | 1015.6 |
| 20260905054825 | 76 | 106 | 0.0 | 1.0 | 0.00 | 0.00 | 0.00 | 90 | 1015.7 |
| 20260905054334 | 76 | 106 | 0.0 | 0.0 | 0.00 | 0.00 | 0.00 | 90 | 1015.6 |
| 20260905053824 | 76 | 106 | 0.0 | 0.0 | 0.00 | 0.00 | 0.00 | 90 | 1015.6 |
| 20260905053333 | 76 | 106 | 0.0 | 0.0 | 0.00 | 0.00 | 0.00 | 89 | 1015.8 |
| 20260905052823 | 77 | 106 | 0.0 | 0.0 | 0.00 | 0.00 | 0.00 | 89 | 1015.9 |
| 20260905052332 | 77 | 106 | 0.0 | 0.0 | 0.00 | 0.00 | 0.00 | 89 | 1015.9 |
| 20260905051821 | 77 | 105 | 0.0 | 0.0 | 0.00 | 0.00 | 0.00 | 89 | 1015.9 |
| 20260905051322 | 77 | 106 | 0.0 | 0.0 | 0.00 | 0.00 | 0.00 | 89 | 1015.9 |
| 20260905050824 | 77 | 106 | 0.0 | 0.0 | 0.00 | 0.00 | 0.00 | 89 | 1015.9 |
| 20260905050353 | 77 | 106 | 0.0 | 0.0 | 0.00 | 0.00 | 0.00 | 89 | 1015.9 |
| 20260905045819 | 77 | 105 | 0.0 | 0.0 | 0.00 | 0.00 | 0.00 | 89 | 1015.9 |
| 20260905045325 | 77 | 105 | 0.0 | 1.0 | 0.00 | 0.00 | 0.00 | 89 | 1016.1 |
| 20260905044854 | 77 | 106 | 0.0 | 1.0 | 0.00 | 0.00 | 0.00 | 89 | 1015.9 |
| 20260905044321 | 77 | 106 | 0.0 | 1.0 | 0.00 | 0.00 | 0.00 | 88 | 1016.0 |